English version Home page |
Updated on June 2, 2013 |
プロフィール
|
軌道要素Epoch 2005 Aug. 18.0 TT = JDT 2453600.5 T 2005 Aug. 24.63045 TT MPC q 2.3667394 (2000.0) P Q n 0.11809348 Peri. 24.72143 +0.60876481 +0.74066698 a 4.1145160 Node 284.07670 -0.76790127 +0.46007490 e 0.4247830 Incl. 17.04279 -0.19933149 +0.48963611 P 8.35 From 113 observations 2005 June 3-2013 May 30, mean residual 0".5.
|
星図
|
光度変化m1 = 14.7 + 5 logΔ + 10.0 log r
|
軌道要素はM.P.E.C. 2013-K47に掲載されたものです。
|